GW5875 Weather Reports


time (UTC)temp
C
wind
direction
speed
KPH
gust
KPH
rain 1hr
cm
rain 24hr
cm
rain mn
cm
humidity
%
barometer
mb
20260505022830 20 144 1.6 1.6 0.00 0.00 0.00 64 1007.8
20260505022326 20 138 0.0 1.6 0.00 0.00 0.00 63 1007.5
20260505021824 20 140 1.6 1.6 0.00 0.00 0.00 64 1007.4
20260505021320 20 132 1.6 1.6 0.00 0.00 0.00 63 1007.4
20260505020816 20 140 1.6 1.6 0.00 0.00 0.00 62 1007.5
20260505020312 20 139 3.2 4.8 0.00 0.00 0.00 62 1007.2
20260505015809 20 134 1.6 1.6 0.00 0.00 0.00 63 1007.7
20260505015306 20 140 0.0 0.0 0.00 0.00 0.00 63 1007.5
20260505014803 20 137 0.0 1.6 0.00 0.00 0.00 63 1007.3
20260505014300 20 141 0.0 0.0 0.00 0.00 0.00 63 1007.1
20260505013757 20 136 0.0 0.0 0.00 0.00 0.00 62 1007.2
20260505013254 20 143 0.0 0.0 0.00 0.00 0.00 62 1007.2
20260505012752 21 141 0.0 1.6 0.00 0.00 0.00 61 1007.3
20260505012250 21 136 1.6 1.6 0.00 0.00 0.00 60 1007.2
20260505011745 21 141 0.0 1.6 0.00 0.00 0.00 58 1007.1
20260505011242 21 132 3.2 4.8 0.00 0.00 0.00 58 1007.4
20260505010738 21 136 1.6 1.6 0.00 0.00 0.00 59 1007.3
20260505010234 21 138 0.0 1.6 0.00 0.00 0.00 57 1007.1
20260505005731 21 139 1.6 1.6 0.00 0.00 0.00 57 1007.0
20260505005228 22 144 0.0 1.6 0.00 0.00 0.00 56 1007.3
20260505004725 22 149 0.0 0.0 0.00 0.00 0.00 56 1007.0
20260505004221 22 152 0.0 0.0 0.00 0.00 0.00 56 1007.2
20260505003719 22 149 0.0 0.0 0.00 0.00 0.00 55 1006.8
20260505003217 22 149 0.0 0.0 0.00 0.00 0.00 54 1006.9
20260505002712 22 150 0.0 0.0 0.00 0.00 0.00 54 1007.0
20260505002210 23 146 0.0 0.0 0.00 0.00 0.00 53 1007.0
20260505001707 23 151 0.0 0.0 0.00 0.00 0.00 53 1007.2
20260505001205 23 147 0.0 0.0 0.00 0.00 0.00 52 1007.1
20260505000702 23 148 3.2 4.8 0.00 0.00 0.00 52 1006.9
20260505000200 23 183 6.4 8.0 0.00 0.00 0.00 52 1007.0
20260504235656 23 155 0.0 0.0 0.00 0.00 0.00 54 1007.1
20260504235152 23 153 0.0 0.0 0.00 0.00 0.00 54 1007.2
20260504234650 23 152 0.0 1.6 0.00 0.00 0.00 52 1007.4
20260504234147 24 130 1.6 1.6 0.00 0.00 0.00 51 1007.5
20260504233642 24 138 1.6 1.6 0.00 0.00 0.00 51 1007.4
20260504233138 24 86 3.2 4.8 0.00 0.00 0.00 50 1007.4
20260504232637 25 153 0.0 1.6 0.00 0.00 0.00 51 1007.7
20260504232133 25 153 0.0 0.0 0.00 0.00 0.00 50 1007.5
20260504231630 25 145 3.2 4.8 0.00 0.00 0.00 50 1007.6
20260504231126 25 1 3.2 4.8 0.00 0.00 0.00 48 1007.6
20260504230622 25 190 4.8 6.4 0.00 0.00 0.00 48 1007.6
20260504230121 25 274 8.0 9.7 0.00 0.00 0.00 46 1007.8
20260504225619 25 164 3.2 6.4 0.00 0.00 0.00 49 1007.7
20260504225115 25 192 3.2 4.8 0.00 0.00 0.00 47 1007.6
20260504224612 25 154 6.4 9.7 0.00 0.00 0.00 47 1007.9
20260504224109 25 184 4.8 6.4 0.00 0.00 0.00 48 1007.9
20260504223606 26 188 8.0 9.7 0.00 0.00 0.00 47 1007.8
20260504223101 26 195 8.0 9.7 0.00 0.00 0.00 45 1008.0
20260504222559 26 196 3.2 4.8 0.00 0.00 0.00 46 1007.9
20260504222056 26 184 1.6 1.6 0.00 0.00 0.00 47 1008.1
20260504221553 26 110 6.4 12.9 0.00 0.00 0.00 45 1008.0
20260504221049 26 198 6.4 9.7 0.00 0.00 0.00 44 1008.0
20260504220546 26 146 3.2 4.8 0.00 0.00 0.00 46 1007.9
20260504220043 27 206 6.4 9.7 0.00 0.00 0.00 44 1007.8
20260504215539 26 153 3.2 4.8 0.00 0.00 0.00 45 1008.2
20260504215037 27 256 6.4 6.4 0.00 0.00 0.00 45 1007.9
20260504214533 26 141 4.8 6.4 0.00 0.00 0.00 45 1008.1
20260504214030 25 201 3.2 4.8 0.00 0.00 0.00 52 1007.9
20260504213526 25 210 3.2 6.4 0.00 0.00 0.00 46 1008.4
20260504213023 26 214 11.3 12.9 0.00 0.00 0.00 44 1008.2
20260504212519 26 182 6.4 8.0 0.00 0.00 0.00 45 1008.3
20260504212017 26 188 9.7 14.5 0.00 0.00 0.00 45 1008.4
20260504211513 26 229 6.4 12.9 0.00 0.00 0.00 44 1008.4
20260504211011 26 243 8.0 12.9 0.00 0.00 0.00 47 1008.2
20260504210508 26 248 16.1 17.7 0.00 0.00 0.00 42 1008.4
20260504210004 27 267 8.0 9.7 0.00 0.00 0.00 46 1008.5
20260504205502 27 164 4.8 6.4 0.00 0.00 0.00 44 1008.6
20260504205000 26 151 8.0 9.7 0.00 0.00 0.00 46 1008.6
20260504204458 26 222 9.7 14.5 0.00 0.00 0.00 45 1008.9
20260504203957 26 239 4.8 6.4 0.00 0.00 0.00 44 1008.9
20260504203454 26 133 4.8 8.0 0.00 0.00 0.00 45 1008.8
20260504202950 26 169 9.7 9.7 0.00 0.00 0.00 43 1009.1
20260504202446 26 243 6.4 9.7 0.00 0.00 0.00 47 1009.2
20260504201943 26 193 6.4 9.7 0.00 0.00 0.00 44 1009.3
20260504201441 26 212 1.6 6.4 0.00 0.00 0.00 48 1009.2
20260504200938 26 195 14.5 19.3 0.00 0.00 0.00 43 1009.3
20260504200435 26 211 3.2 4.8 0.00 0.00 0.00 46 1009.3
20260504195931 26 244 9.7 14.5 0.00 0.00 0.00 43 1009.5
20260504195427 26 160 4.8 8.0 0.00 0.00 0.00 46 1009.5
20260504194924 26 208 12.9 17.7 0.00 0.00 0.00 42 1009.6
20260504194420 26 208 9.7 19.3 0.00 0.00 0.00 42 1009.8
20260504193916 26 227 8.0 9.7 0.00 0.00 0.00 46 1009.9
20260504193414 26 216 12.9 19.3 0.00 0.00 0.00 43 1010.2
20260504192912 26 180 9.7 9.7 0.00 0.00 0.00 44 1009.9
20260504192409 26 152 9.7 17.7 0.00 0.00 0.00 43 1010.2
20260504191908 26 207 16.1 24.1 0.00 0.00 0.00 43 1010.1
20260504191405 26 255 8.0 9.7 0.00 0.00 0.00 43 1010.2
20260504190900 26 117 8.0 12.9 0.00 0.00 0.00 44 1010.3
20260504190356 26 171 6.4 8.0 0.00 0.00 0.00 44 1010.2
20260504185853 26 239 8.0 8.0 0.00 0.00 0.00 42 1010.6
20260504185350 25 203 9.7 14.5 0.00 0.00 0.00 44 1010.3
20260504184846 25 89 6.4 9.7 0.00 0.00 0.00 43 1010.6
20260504184342 25 220 9.7 12.9 0.00 0.00 0.00 45 1010.8
20260504183838 25 247 9.7 12.9 0.00 0.00 0.00 45 1010.7
20260504183336 25 207 6.4 8.0 0.00 0.00 0.00 46 1010.9
20260504182833 25 206 12.9 20.9 0.00 0.00 0.00 44 1010.9
20260504182331 25 207 9.7 14.5 0.00 0.00 0.00 44 1010.9
20260504181827 25 161 4.8 8.0 0.00 0.00 0.00 43 1010.4
20260504181325 26 146 8.0 9.7 0.00 0.00 0.00 44 1010.7
20260504180824 25 137 3.2 6.4 0.00 0.00 0.00 47 1010.6
20260504180322 25 222 11.3 14.5 0.00 0.00 0.00 44 1010.9
20260504175820 25 232 3.2 6.4 0.00 0.00 0.00 49 1011.0
20260504175316 25 207 11.3 14.5 0.00 0.00 0.00 44 1011.1
20260504174815 25 194 12.9 14.5 0.00 0.00 0.00 43 1011.2
20260504174311 25 194 8.0 9.7 0.00 0.00 0.00 45 1011.3
20260504173808 25 219 12.9 17.7 0.00 0.00 0.00 44 1011.5
20260504173305 25 235 6.4 9.7 0.00 0.00 0.00 44 1011.7
20260504172802 24 164 4.8 8.0 0.00 0.00 0.00 45 1011.8
20260504172259 24 250 19.3 25.7 0.00 0.00 0.00 43 1011.9
20260504171754 25 241 14.5 24.1 0.00 0.00 0.00 44 1012.0
20260504171252 25 192 16.1 19.3 0.00 0.00 0.00 44 1011.7
20260504170749 25 193 6.4 8.0 0.00 0.00 0.00 45 1011.7
20260504170246 24 242 19.3 25.7 0.00 0.00 0.00 45 1011.9
20260504160204 23 246 6.4 8.0 0.00 0.00 0.00 51 1012.5
20260504151132 22 263 19.3 25.7 0.00 0.00 0.00 51 1012.7
20260504150630 22 193 12.9 17.7 0.00 0.00 0.00 53 1012.6
20260504150126 22 255 14.5 20.9 0.00 0.00 0.00 53 1012.6
20260504141055 20 216 4.8 6.4 0.00 0.00 0.00 62 1012.9
20260504140551 20 169 3.2 4.8 0.00 0.00 0.00 62 1013.0
20260504130516 18 194 4.8 6.4 0.00 0.00 0.00 68 1013.0
20260504110403 11 132 0.0 0.0 0.00 0.00 0.00 95 1012.0
20260504100320 11 131 0.0 0.0 0.00 0.00 0.00 93 1012.4
20260504081714 13 143 0.0 0.0 0.00 0.00 0.00 88 1012.5
20260504081210 13 138 0.0 0.0 0.00 0.00 0.00 86 1012.6
20260504080706 14 152 0.0 0.0 0.00 0.00 0.00 84 1012.6
20260504080203 13 161 0.0 0.0 0.00 0.00 0.00 86 1012.6
20260504070131 13 144 0.0 0.0 0.00 0.00 0.00 87 1013.0
20260504050520 16 163 0.0 0.0 0.00 0.00 0.00 76 1013.5
20260504050016 16 147 0.0 1.6 0.00 0.00 0.00 76 1013.3
20260504045513 15 190 1.6 1.6 0.00 0.00 0.00 76 1013.5
20260504045008 16 144 0.0 1.6 0.00 0.00 0.00 78 1013.5
20260504044506 16 140 0.0 1.6 0.00 0.00 0.00 77 1013.4
20260504044003 16 136 0.0 1.6 0.00 0.00 0.00 78 1013.4
20260504043500 15 162 0.0 0.0 0.00 0.00 0.00 80 1013.4
20260504042958 15 218 0.0 1.6 0.00 0.00 0.00 81 1013.3
20260504042454 15 150 0.0 0.0 0.00 0.00 0.00 82 1013.5
20260504041951 15 140 0.0 0.0 0.00 0.00 0.00 83 1013.7
20260504041447 15 150 0.0 0.0 0.00 0.00 0.00 82 1013.6
20260504040943 15 129 0.0 0.0 0.00 0.00 0.00 82 1013.7
20260504040441 15 147 0.0 0.0 0.00 0.00 0.00 81 1013.8
20260504035936 15 134 0.0 0.0 0.00 0.00 0.00 79 1013.8
20260504035434 15 150 0.0 0.0 0.00 0.00 0.00 81 1013.8
20260504034931 15 127 0.0 0.0 0.00 0.00 0.00 82 1013.7
20260504034428 15 128 1.6 1.6 0.00 0.00 0.00 81 1013.8
20260504033925 15 159 0.0 1.6 0.00 0.00 0.00 80 1013.6
20260504033423 15 143 0.0 1.6 0.00 0.00 0.00 80 1013.7
20260504032920 15 161 0.0 0.0 0.00 0.00 0.00 79 1013.8
20260504032417 15 143 0.0 0.0 0.00 0.00 0.00 80 1013.8
20260504031913 15 143 0.0 0.0 0.00 0.00 0.00 80 1013.7
20260504031411 15 148 0.0 0.0 0.00 0.00 0.00 79 1013.9
20260504030907 15 158 0.0 0.0 0.00 0.00 0.00 79 1013.8
20260504030404 16 149 0.0 0.0 0.00 0.00 0.00 79 1013.8
20260504025900 16 144 0.0 0.0 0.00 0.00 0.00 79 1013.9
20260504025357 16 145 0.0 0.0 0.00 0.00 0.00 80 1013.6
20260504024854 16 145 0.0 0.0 0.00 0.00 0.00 79 1013.7
20260504024350 16 144 0.0 0.0 0.00 0.00 0.00 78 1013.8
20260504023848 16 149 0.0 0.0 0.00 0.00 0.00 77 1013.6
20260504023344 16 154 0.0 0.0 0.00 0.00 0.00 76 1013.6